Weather History for Texarkana, AR

Change the Weather History Date:

Wednesday, April 10, 2013

  Actual Average Record
Temperature  
Mean Temperature 61 °F 62 °F  
Max Temperature 79 °F 74 °F 91 °F (1930)
Min Temperature 43 °F 51 °F 33 °F (1938)
Degree Days  
Heating Degree Days 4 5  
Month to date heating degree days 68 54  
Since 1 July heating degree days 2404 2548  
Cooling Degree Days 0 2  
Month to date cooling degree days 19 17  
Year to date cooling degree days 34 40  
Growing Degree Days 10 (Base 50)    
Moisture  
Dew Point 57 °F    
Average Humidity 88    
Maximum Humidity 100    
Minimum Humidity 76    
Precipitation  
Precipitation 0.92 in 0.13 in 1.22 in (2012)
Month to date precipitation 1.50 1.23  
Year to date precipitation 9.55 12.82  
Snow  
Snow 0.00 in - - ()
Month to date snowfall 0.0  
Since 1 July snowfall 2.1  
Snow Depth 0.00 in    
Sea Level Pressure  
Sea Level Pressure 29.77 in    
Wind  
Wind Speed 11 mph (SW)    
Max Wind Speed 26 mph    
Max Gust Speed 33 mph    
Visibility 7 miles    
Events Rain , Thunderstorm    
T = Trace of Precipitation, MM = Missing Value Source: NWS Daily Summary

Daily Weather History Graph

Daily Weather History Graph

Search for Another Location

Airport:

Trip Planner

Search our weather history database for the weather conditions in past years. The results will help you decide how hot, cold, wet, or windy it might be!

Date:

Astronomy

Apr. 10, 2013 Rise Set
Actual Time 6:51 AM CDT 7:43 PM CDT
Civil Twilight 6:26 AM CDT 8:08 PM CDT
Nautical Twilight 5:56 AM CDT 8:38 PM CDT
Astronomical Twilight 5:25 AM CDT 9:09 PM CDT
Moon 6:49 AM CDT (4/10) 8:16 PM CDT (4/10)
Length of Visible Light 13h 42m
Length of Day
12h 51m
New Moon, 0% of the Moon is Illuminated
Apr 10
New Moon
Apr 18
First Quarter
Apr 25
Full
May 2
Last Quarter
May 9
New

Hourly Weather History & Observations

Time (CDT) Temp. Windchill Dew Point Humidity Pressure Visibility Wind Dir Wind Speed Gust Speed Precip Events Conditions
12:53 AM 73.9 °F - 68.0 °F 82% 29.81 in 10.0 mi South 13.8 mph 19.6 mph N/A   Overcast
1:53 AM 73.9 °F - 68.0 °F 82% 29.81 in 10.0 mi South 6.9 mph - N/A   Mostly Cloudy
2:40 AM 73.4 °F - 68.0 °F 83% 29.79 in 10.0 mi South 5.8 mph - N/A   Overcast
2:53 AM 73.0 °F - 68.0 °F 84% 29.78 in 10.0 mi South 6.9 mph - N/A   Overcast
3:53 AM 71.1 °F - 68.0 °F 90% 29.77 in 10.0 mi SSE 6.9 mph - N/A   Partly Cloudy
4:53 AM 71.1 °F - 68.0 °F 90% 29.75 in 10.0 mi SE 9.2 mph - N/A   Scattered Clouds
5:34 AM 71.6 °F - 68.0 °F 88% 29.76 in 10.0 mi SSE 8.1 mph - N/A   Mostly Cloudy
5:53 AM 71.1 °F - 68.0 °F 90% 29.75 in 10.0 mi SSE 8.1 mph - N/A   Overcast
6:53 AM 71.1 °F - 68.0 °F 90% 29.79 in 10.0 mi South 4.6 mph - N/A   Overcast
7:53 AM 71.1 °F - 69.1 °F 93% 29.81 in 8.0 mi SSE 5.8 mph - N/A   Overcast
8:53 AM 75.0 °F - 69.1 °F 82% 29.81 in 10.0 mi South 10.4 mph - N/A   Mostly Cloudy
9:53 AM 77.0 °F - 69.1 °F 76% 29.79 in 10.0 mi South 16.1 mph 19.6 mph N/A   Scattered Clouds
10:53 AM 77.0 °F - 69.1 °F 76% 29.79 in 10.0 mi SSE 13.8 mph 20.7 mph N/A   Overcast
12:43 PM 75.2 °F - 69.8 °F 83% 29.76 in 10.0 mi SSE 19.6 mph 26.5 mph 0.00 in   Overcast
12:53 PM 75.0 °F - 71.1 °F 87% 29.73 in 6.0 mi SSE 18.4 mph 24.2 mph 0.00 in Rain Light Rain
1:21 PM 71.6 °F - 69.8 °F 94% 29.74 in 1.8 mi SSE 11.5 mph 27.6 mph 0.05 in Rain Rain
1:24 PM 73.4 °F - 69.8 °F 88% 29.74 in 2.5 mi SSE 13.8 mph 23.0 mph 0.05 in Rain , Thunderstorm Light Rain
1:31 PM 71.6 °F - 69.8 °F 94% 29.73 in 6.0 mi SSE 16.1 mph 23.0 mph 0.05 in Thunderstorm Overcast
1:53 PM 72.0 °F - 70.0 °F 93% 29.66 in 5.0 mi SE 13.8 mph 25.3 mph 0.05 in Thunderstorm Overcast
2:06 PM 69.8 °F - 66.2 °F 88% 29.72 in 1.8 mi SW 13.8 mph 33.4 mph 0.07 in Rain , Thunderstorm Heavy Thunderstorms and Rain
2:11 PM 68.0 °F - 66.2 °F 94% 29.72 in 0.8 mi South 9.2 mph 20.7 mph 0.18 in Rain , Thunderstorm Heavy Thunderstorms and Rain
2:20 PM 66.2 °F - 66.2 °F 100% 29.72 in 1.0 mi WSW 6.9 mph - 0.26 in Rain , Thunderstorm Heavy Rain
2:24 PM 66.2 °F - 66.2 °F 100% 29.71 in 1.5 mi SW 6.9 mph - 0.28 in Rain , Thunderstorm Rain
2:29 PM 66.2 °F - 66.2 °F 100% 29.72 in 3.0 mi SW 5.8 mph - 0.28 in Rain , Thunderstorm Light Thunderstorms and Rain
2:37 PM 64.4 °F - 64.4 °F 100% 29.72 in 2.5 mi West 13.8 mph 20.7 mph 0.31 in Rain , Thunderstorm Thunderstorms and Rain
2:45 PM 62.6 °F - 62.6 °F 100% 29.72 in 3.0 mi West 10.4 mph - 0.33 in Rain , Thunderstorm Rain
2:53 PM 61.0 °F - 61.0 °F 100% 29.71 in 3.0 mi West 11.5 mph - 0.35 in Rain Light Rain
3:00 PM 59.0 °F - 59.0 °F 100% 29.73 in 4.0 mi West 17.3 mph - 0.01 in Rain Rain
3:08 PM 57.2 °F - 57.2 °F 100% 29.72 in 5.0 mi West 16.1 mph - 0.02 in Rain , Thunderstorm Light Rain
3:53 PM 48.9 °F - 46.9 °F 93% 29.74 in 10.0 mi West 19.6 mph 29.9 mph 0.08 in Rain , Thunderstorm Light Rain
3:58 PM 48.2 °F - 46.4 °F 93% 29.75 in 10.0 mi West 19.6 mph 29.9 mph 0.00 in Rain Light Rain
4:10 PM 48.2 °F - 46.4 °F 93% 29.76 in 10.0 mi West 16.1 mph 23.0 mph 0.00 in Rain , Thunderstorm Light Thunderstorms and Rain
4:38 PM 46.4 °F 43.5 °F 46.4 °F 100% 29.75 in 1.8 mi WSW 5.8 mph - 0.17 in Rain , Thunderstorm Heavy Thunderstorms and Rain
4:51 PM 46.4 °F 41.9 °F 46.4 °F 100% 29.76 in 3.0 mi West 9.2 mph - 0.24 in Rain , Thunderstorm Light Thunderstorms and Rain
4:53 PM 46.9 °F - 46.9 °F 100% 29.75 in 4.0 mi West 9.2 mph - 0.25 in Rain , Thunderstorm Thunderstorms and Rain
5:24 PM 46.4 °F 40.1 °F 44.6 °F 93% 29.77 in 1.8 mi West 15.0 mph 24.2 mph 0.08 in Rain , Thunderstorm Heavy Rain
5:32 PM 46.4 °F 42.9 °F 44.6 °F 93% 29.76 in 3.0 mi West 6.9 mph 24.2 mph 0.09 in Rain , Thunderstorm Light Rain
5:53 PM 45.0 °F 38.5 °F 45.0 °F 100% 29.77 in 8.0 mi West 13.8 mph - 0.10 in Rain , Thunderstorm Rain
6:02 PM 44.6 °F 38.4 °F 44.6 °F 100% 29.76 in 1.8 mi WNW 12.7 mph - 0.07 in Rain , Thunderstorm Heavy Rain
6:10 PM 44.6 °F 39.2 °F 44.6 °F 100% 29.77 in 3.0 mi West 10.4 mph - 0.08 in Rain , Thunderstorm Light Rain
6:23 PM 44.6 °F 37.8 °F 44.6 °F 100% 29.77 in 10.0 mi West 15.0 mph 21.9 mph 0.09 in Rain Light Rain
6:53 PM 46.0 °F 39.9 °F 45.0 °F 96% 29.78 in 10.0 mi West 13.8 mph - 0.09 in   Overcast
7:29 PM 46.4 °F 41.1 °F 44.6 °F 93% 29.81 in 10.0 mi WSW 11.5 mph - N/A   Overcast
7:53 PM 45.0 °F 38.2 °F 44.1 °F 97% 29.79 in 10.0 mi WNW 15.0 mph - 0.00 in   Overcast
8:53 PM 45.0 °F 40.1 °F 43.0 °F 93% 29.86 in 10.0 mi West 9.2 mph 17.3 mph 0.00 in Thunderstorm Thunderstorm
9:12 PM 44.6 °F 39.7 °F 42.8 °F 93% 29.88 in 10.0 mi West 9.2 mph - N/A   Overcast
9:53 PM 44.1 °F 38.6 °F 42.1 °F 93% 29.87 in 10.0 mi WNW 10.4 mph - N/A   Overcast
10:10 PM 42.8 °F 35.1 °F 41.0 °F 93% 29.88 in 10.0 mi WNW 16.1 mph 24.2 mph N/A   Overcast
10:53 PM 43.0 °F 36.4 °F 41.0 °F 93% 29.88 in 10.0 mi WNW 12.7 mph - N/A   Overcast
11:23 PM 42.8 °F 35.8 °F 41.0 °F 93% 29.88 in 10.0 mi WNW 13.8 mph - N/A   Overcast
11:53 PM 43.0 °F 38.2 °F 41.0 °F 93% 29.87 in 10.0 mi WNW 8.1 mph 18.4 mph N/A   Overcast